DMSP 5D-2 F13 DEB, 40515

Orbit data source: Space-Track

DMSP 5D-2 F13 DEB, 40515 is space debris in SSO originally from a launch on Fri, 24 Mar 1995 UTC launched from the Air Force Western Test Range (AFWTR). Debris objects in space refer to the collection of defunct objects orbiting the Earth. Examples of debris include non-operational satellites, rocket bodies, and fragments generated from explosions, collisions, or faulty payload assembly.

Loading next visibility...
Identifier
40515, 1995-015DB
Orbit
SSO
Country
Flag of USUS
Related business
Manufacturer
Unknown
Mission
Spacecraft
Bus & Motor
Unknown
Mass
Unknown
Launch date (UTC)
1995-03-24 (31 years ago)
Launch vehicle
Unknown
Launch site
Air Force Western Test Range (AFWTR)
Object type
Payload
Rocket body
Debris
Shape & HBR
Unknown shape, 0.1 m
Radar Cross Section
Small (<0.1 m²)

Expand to show TLE details & history
Last TLE update: 2 days ago

TLE from 2 days ago
0 DMSP 5D-2 F13 DEB
1 40515U 95015DB  25297.03209959  .00007607  00000-0  26406-2 0  9997
2 40515  98.8388 326.1214 0016557 246.8170 113.1270 14.35753494547716
Epoch: 2025-10-24T00:46Z
TLE epoch observation values (Epoch: 2025-10-24T00:46:13.404Z)
Latitude
-0.00012°
Longitude
-78.11726°
Altitude
780.163 km
Speed
7.461 km/s
True Right ascension
21h 44m 29s
True Declination
0° 00' 00"
Sunlit
Object was in partial shadow at epoch
Visualization orbit readout
Latitude
Unknown
Longitude
Unknown
Altitude
Unknown
Speed
Unknown
Apparent Right ascension
Unknown
Apparent Declination
Unknown
Sunlit
N/A
Visualization observer readout
Local Sidereal Time
14:57:30
Azimuth
Unknown
Elevation
Unknown
Doppler factor
Unknown
Orbital elements
Apogee altitude
781.542 km
Perigee altitude
757.873 km
Semi-major axis
7,147.844 km
Eccentricity
0.00166
Inclination
98.8388°
RAAN
326.1214°
Arg. of periapsis
246.817°
True anomaly
113.30134°
Mean anomaly
113.127°
Eccentric anomaly
113.21418°
Mean motion
3.59154 °/min
Orbital period
100.24 mins
BSTAR
0.0026406
Loading maneuver chart data...
Computing Atmospheric mass density...

Documentation

Showing up to 5 results
|